Home   Weather   Ontario   Past weeks

Flag for USA Past Weather in Ontario, Oregon, USA — Yesterday and Last 2 Weeks

Now
23 °F

Light snow. Ice fog.


Feels Like: 16 °F
Forecast: 27 / 35 °F
Wind: 6 mph from North

Location: Ontario Municipal Airport

Current Time: Dec 8, 2016 at 9:03:49 pm

Latest Report: Dec 8, 2016 at 8:00 pm


Visibility: 1 mi

Pressure: 30.13 "Hg (27.71 "Hg at 656m altitude)

Humidity: 88%

Dew Point: 20 °F

Location of OntarioLocation

Past Weather in Ontario — Graph

°F

Ontario Temperature Yesterday

Maximum temperature yesterday: 28 °F (at 4:03 pm)
Minimum temperature yesterday: 11 °F (at 7:53 am)
Average temperature yesterday: 19 °F

High & Low Weather Summary for the Past Weeks

 TemperatureHumidityPressure
High52 °F (Nov 27, 12:53 pm)92% (Nov 28, 5:53 am)30.55 "Hg (Nov 28, 5:53 am)
Low11 °F (Dec 7, 7:53 am)40% (Nov 27, 12:53 pm)29.56 "Hg (Nov 26, 11:53 pm)
Average34 °F74%30.15 "Hg
* Reported Nov 23 8:53 pm — Dec 8 8:00 pm, Ontario, Weather by CustomWeather, © 2016

Note: Actual official high and low records may vary slightly from our data, if they occured in-between our weather recording intervals... More about our weather records

Advertising

Ontario Weather History for the Previous 24 Hours

Scroll right to see more
 ConditionsComfort  
Time TempWeatherWind HumidityBarometerVisibility
8:00 pm
Thu, Dec 8
23 °FLight snow. Ice fog.6 mph88%30.13 "Hg1 mi
7:04 pm23 °FLight snow. Ice fog.5 mph88%30.13 "Hg1 mi
6:53 pm22 °FLight snow. Ice fog.6 mph92%30.22 "Hg1 mi
5:53 pm22 °FLight snow. Ice fog.7 mph92%30.24 "Hg1 mi
4:53 pm22 °FLight snow. Ice fog.7 mph89%30.25 "Hg1 mi
3:53 pm23 °FSnow. Ice fog.10 mph85%30.27 "Hg1 mi
2:59 pm23 °FLight snow. Ice fog.8 mph85%30.19 "Hg1 mi
1:53 pm23 °FSnow. Ice fog.7 mph85%30.29 "Hg1 mi
12:53 pm22 °FSnow. Ice fog.8 mph89%30.33 "Hg1 mi
12:00 pm23 °FLight snow. Ice fog.8 mph85%30.27 "Hg1 mi
10:53 am23 °FLight snow. Overcast.3 mph78%30.39 "Hg1 mi
9:53 am20 °FMostly cloudy.7 mph82%30.40 "Hg10 mi
8:53 am19 °FPassing clouds.6 mph77%30.42 "Hg10 mi
7:53 am19 °FPassing clouds.7 mph77%30.42 "Hg10 mi
6:53 am19 °FClear.6 mph81%30.43 "Hg10 mi
5:53 am19 °FClear.7 mph81%30.43 "Hg10 mi
4:53 am19 °FClear.6 mph77%30.44 "Hg10 mi
3:53 am18 °FClear.7 mph80%30.46 "Hg10 mi
2:53 am18 °FClear.5 mph80%30.48 "Hg10 mi
1:53 am16 °FClear.No wind84%30.50 "Hg10 mi
12:53 am16 °FClear.5 mph84%30.51 "Hg10 mi
11:53 pm
Wed, Dec 7
17 °FClear.5 mph83%30.52 "Hg10 mi
10:53 pm17 °FPassing clouds.3 mph83%30.53 "Hg10 mi
9:53 pm18 °FClear.3 mph84%30.53 "Hg10 mi
Weather by CustomWeather, © 2016

See weather overviewHow to use our weather pages